TimePST,TemperatureF,Dew PointF,Humidity,Sea Level PressureIn,VisibilityMPH,Wind Direction,Wind SpeedMPH,Gust SpeedMPH,PrecipitationIn,Events,Conditions,WindDirDegrees,DateUTC
12:15 AM,41.0,37.4,87,30.28,3.0,Calm,Calm,-,N/A,,Overcast,0,2012-11-25 08:15:00
12:35 AM,41.0,37.4,87,30.28,10.0,NNW,3.5,-,N/A,,Overcast,340,2012-11-25 08:35:00
12:55 AM,41.0,37.4,87,30.27,8.0,Calm,Calm,-,N/A,,Overcast,0,2012-11-25 08:55:00
1:15 AM,41.0,39.2,93,30.28,1.5,Calm,Calm,-,N/A,,Overcast,0,2012-11-25 09:15:00
1:35 AM,41.0,39.2,93,30.27,10.0,NNE,3.5,-,N/A,,Overcast,20,2012-11-25 09:35:00
1:55 AM,41.0,39.2,93,30.28,10.0,Calm,Calm,-,N/A,,Overcast,0,2012-11-25 09:55:00
2:15 AM,41.0,37.4,87,30.28,10.0,Calm,Calm,-,N/A,,Overcast,0,2012-11-25 10:15:00
2:35 AM,39.2,37.4,93,30.29,10.0,Calm,Calm,-,N/A,,Overcast,0,2012-11-25 10:35:00
2:55 AM,39.2,37.4,93,30.29,1.8,NW,3.5,-,N/A,,Overcast,320,2012-11-25 10:55:00
3:15 AM,39.2,37.4,93,30.29,1.2,Calm,Calm,-,N/A,,Overcast,0,2012-11-25 11:15:00
3:35 AM,41.0,37.4,87,30.29,4.0,Calm,Calm,-,N/A,,Overcast,0,2012-11-25 11:35:00
3:55 AM,41.0,37.4,87,30.29,8.0,Calm,Calm,-,N/A,,Overcast,0,2012-11-25 11:55:00
4:15 AM,41.0,37.4,87,30.29,10.0,Calm,Calm,-,N/A,,Overcast,0,2012-11-25 12:15:00
4:35 AM,41.0,37.4,87,30.29,10.0,Calm,Calm,-,N/A,,Overcast,0,2012-11-25 12:35:00
4:55 AM,41.0,37.4,87,30.29,10.0,Calm,Calm,-,N/A,,Overcast,0,2012-11-25 12:55:00
5:15 AM,41.0,37.4,87,30.29,10.0,Calm,Calm,-,N/A,,Overcast,0,2012-11-25 13:15:00
5:35 AM,41.0,37.4,87,30.28,10.0,Calm,Calm,-,N/A,,Overcast,0,2012-11-25 13:35:00
5:55 AM,41.0,37.4,87,30.28,10.0,Calm,Calm,-,N/A,,Overcast,0,2012-11-25 13:55:00
6:15 AM,41.0,37.4,87,30.28,10.0,Calm,Calm,-,N/A,,Overcast,0,2012-11-25 14:15:00
6:35 AM,41.0,37.4,87,30.28,10.0,West,3.5,-,N/A,,Overcast,280,2012-11-25 14:35:00
6:55 AM,41.0,37.4,87,30.29,10.0,North,9.2,-,N/A,,Overcast,350,2012-11-25 14:55:00
7:15 AM,41.0,37.4,87,30.30,10.0,NNW,6.9,-,N/A,,Overcast,340,2012-11-25 15:15:00
7:35 AM,41.0,37.4,87,30.30,10.0,NNW,5.8,-,N/A,,Overcast,340,2012-11-25 15:35:00
7:55 AM,41.0,37.4,87,30.30,10.0,NNW,3.5,-,N/A,,Overcast,340,2012-11-25 15:55:00
8:15 AM,41.0,37.4,87,30.30,10.0,Calm,Calm,-,N/A,,Overcast,0,2012-11-25 16:15:00
8:35 AM,41.0,37.4,87,30.30,10.0,NNW,5.8,-,N/A,,Overcast,340,2012-11-25 16:35:00
8:55 AM,42.8,37.4,81,30.30,10.0,NNW,5.8,-,N/A,,Overcast,330,2012-11-25 16:55:00
9:15 AM,42.8,37.4,81,30.31,10.0,North,4.6,-,N/A,,Overcast,10,2012-11-25 17:15:00
9:35 AM,42.8,37.4,81,30.31,10.0,NNW,5.8,-,N/A,,Overcast,340,2012-11-25 17:35:00
9:55 AM,42.8,37.4,81,30.31,10.0,NW,3.5,-,N/A,,Overcast,320,2012-11-25 17:55:00
10:15 AM,42.8,37.4,81,30.31,10.0,NNW,5.8,-,N/A,,Overcast,340,2012-11-25 18:15:00
10:35 AM,42.8,35.6,76,30.31,10.0,North,6.9,-,N/A,,Mostly Cloudy,360,2012-11-25 18:35:00
10:55 AM,44.6,37.4,76,30.31,10.0,North,5.8,-,N/A,,Mostly Cloudy,350,2012-11-25 18:55:00
11:15 AM,44.6,37.4,76,30.31,10.0,North,6.9,-,N/A,,Mostly Cloudy,350,2012-11-25 19:15:00
11:35 AM,44.6,37.4,76,30.30,10.0,NNW,8.1,-,N/A,,Overcast,340,2012-11-25 19:35:00
11:55 AM,44.6,37.4,76,30.29,10.0,NW,4.6,-,N/A,,Scattered Clouds,320,2012-11-25 19:55:00
12:15 PM,46.4,37.4,71,30.28,10.0,North,6.9,-,N/A,,Scattered Clouds,350,2012-11-25 20:15:00
12:35 PM,46.4,37.4,71,30.28,10.0,North,10.4,-,N/A,,Mostly Cloudy,360,2012-11-25 20:35:00
12:55 PM,46.4,37.4,71,30.27,10.0,North,6.9,-,N/A,,Partly Cloudy,10,2012-11-25 20:55:00
1:15 PM,46.4,37.4,71,30.26,10.0,North,10.4,16.1,N/A,,Partly Cloudy,360,2012-11-25 21:15:00
1:35 PM,48.2,37.4,66,30.25,10.0,NNE,5.8,-,N/A,,Clear,30,2012-11-25 21:35:00
1:55 PM,48.2,37.4,66,30.25,10.0,North,9.2,-,N/A,,Clear,10,2012-11-25 21:55:00
2:15 PM,48.2,37.4,66,30.25,10.0,North,6.9,-,N/A,,Clear,10,2012-11-25 22:15:00
2:35 PM,48.2,37.4,66,30.25,10.0,NNW,9.2,-,N/A,,Clear,340,2012-11-25 22:35:00
2:55 PM,48.2,37.4,66,30.24,10.0,North,9.2,-,N/A,,Clear,10,2012-11-25 22:55:00
3:15 PM,46.4,37.4,71,30.25,10.0,North,12.7,-,N/A,,Clear,350,2012-11-25 23:15:00
3:35 PM,46.4,37.4,71,30.24,10.0,North,8.1,16.1,N/A,,Clear,10,2012-11-25 23:35:00
3:55 PM,44.6,37.4,76,30.24,10.0,North,9.2,-,N/A,,Clear,360,2012-11-25 23:55:00
4:15 PM,44.6,35.6,71,30.25,10.0,North,8.1,-,N/A,,Clear,350,2012-11-26 00:15:00
4:35 PM,44.6,35.6,71,30.24,10.0,North,9.2,-,N/A,,Clear,350,2012-11-26 00:35:00
4:55 PM,42.8,35.6,76,30.24,10.0,North,8.1,-,N/A,,Clear,10,2012-11-26 00:55:00
5:15 PM,42.8,35.6,76,30.23,10.0,NNE,10.4,-,N/A,,Clear,20,2012-11-26 01:15:00
5:35 PM,42.8,35.6,76,30.23,10.0,North,5.8,-,N/A,,Clear,10,2012-11-26 01:35:00
5:55 PM,42.8,35.6,76,30.22,10.0,North,4.6,-,N/A,,Clear,360,2012-11-26 01:55:00
6:15 PM,42.8,35.6,76,30.22,10.0,North,9.2,-,N/A,,Clear,360,2012-11-26 02:15:00
6:35 PM,42.8,35.6,76,30.21,10.0,North,6.9,-,N/A,,Clear,360,2012-11-26 02:35:00
6:55 PM,41.0,35.6,81,30.21,10.0,North,5.8,-,N/A,,Clear,350,2012-11-26 02:55:00
7:15 PM,41.0,35.6,81,30.21,10.0,North,5.8,-,N/A,,Clear,350,2012-11-26 03:15:00
7:35 PM,41.0,35.6,81,30.21,10.0,NNE,4.6,-,N/A,,Clear,20,2012-11-26 03:35:00
7:55 PM,41.0,35.6,81,30.20,10.0,North,5.8,-,N/A,,Clear,350,2012-11-26 03:55:00
8:15 PM,39.2,35.6,87,30.20,10.0,NNE,3.5,-,N/A,,Clear,30,2012-11-26 04:15:00
8:35 PM,39.2,33.8,81,30.20,10.0,North,3.5,-,N/A,,Clear,360,2012-11-26 04:35:00
8:55 PM,37.4,33.8,87,30.19,10.0,Calm,Calm,-,N/A,,Clear,0,2012-11-26 04:55:00
9:15 PM,37.4,33.8,87,30.18,10.0,Calm,Calm,-,N/A,,Clear,0,2012-11-26 05:15:00
9:35 PM,37.4,33.8,87,30.18,10.0,SE,3.5,-,N/A,,Clear,130,2012-11-26 05:35:00
9:55 PM,35.6,33.8,93,30.17,10.0,SE,3.5,-,N/A,,Clear,140,2012-11-26 05:55:00
10:15 PM,35.6,33.8,93,30.16,10.0,Calm,Calm,-,N/A,,Clear,0,2012-11-26 06:15:00
10:35 PM,35.6,32.0,87,30.16,9.0,Calm,Calm,-,N/A,,Clear,0,2012-11-26 06:35:00
10:55 PM,35.6,32.0,87,30.16,10.0,Calm,Calm,-,N/A,,Clear,0,2012-11-26 06:55:00
11:15 PM,35.6,32.0,87,30.16,10.0,Calm,Calm,-,N/A,,Clear,0,2012-11-26 07:15:00
11:35 PM,33.8,30.2,87,30.16,10.0,Calm,Calm,-,N/A,,Clear,0,2012-11-26 07:35:00
11:55 PM,35.6,32.0,87,30.17,10.0,Calm,Calm,-,N/A,,Clear,0,2012-11-26 07:55:00